Location: Allie Creek
(37.5926°N, 89.8526°W)
Time: 03:48:51
(UTC+00:00)

SL-16 R/B - Pass Details

Date: 26 September 2023
Orbit: 842 x 845 km, 71.0° (Epoch: 29 November)

Event Time Altitude Azimuth Distance (km) Brightness Sun altitude
Rises 08:24:38 0° 348° (NNW) 3,410 5.6 -39.3°
Reaches altitude 10° 08:27:27 10° 360° (N) 2,471 4.9 -38.8°
Maximum altitude 08:32:16 28° 58° (ENE) 1,534 4.0 -38.1°
Drops below altitude 10° 08:37:05 10° 117° (ESE) 2,461 4.9 -37.3°
Sets 08:39:52 0° 129° (SE) 3,393 5.5 -36.8°
